Regional Weather Roundup
Issued by NWS Memphis, TN

Home | Current Version | Previous Version | Text Only | Print | Product List | Glossary On
Versions: 1 2 3 4 5 6 7 8 9 10 11 12 13 14 15 16 17 18 19 20 21 22 23 24 25 26 27 28 29 30 31 32 33 34 35 36 37 38 39 40 41 42 43 44 45 46 47 48 49 50
000
ASUS44 KMEG 070210
RWRMEG
MEMPHIS CWA HOURLY WEATHER ROUNDUP
NATIONAL WEATHER SERVICE MEMPHIS TN
800 PM CST FRI MAR 06 2015

...WEST TENNESSEE...

CITY           SKY/WX    TMP DP  RH WIND       PRES   REMARKS
MEMPHIS INTL   CLEAR     31  18  58 CALM      30.50S
NWS MEMPHIS      N/A     29 N/A N/A MISG        N/A
JACKSON        CLEAR     26  14  60 S5        30.49R WCI  20
LEXINGTON      CLEAR     27  12  54 CALM      30.47R
SAVANNAH       CLEAR     27  21  80 CALM      30.48S
DYERSBURG      CLEAR     27   7  43 S3        30.49F
UNION CITY     CLEAR     21  10  63 S5        30.45S WCI  15
PARIS          CLEAR     19   9  63 SW6       30.46S WCI  11


...EASTERN ARKANSAS...

CITY           SKY/WX    TMP DP  RH WIND       PRES   REMARKS
JONESBORO      CLEAR     24  17  74 CALM      30.47F
WEST MEMPHIS   CLEAR     26  19  74 S3        30.50S
BATESVILLE     CLEAR     36  18  48 S9        30.44F WCI  29
NEWPORT        CLEAR     26  21  81 S10       30.48S WCI  16
WALNUT RIDGE   CLEAR     27  16  63 S12       30.45S WCI  16
BLYTHEVILLE    PTCLDY    22  14  71 S6        30.48F WCI  14
SEARCY         CLEAR     30  23  75 S5        30.49F WCI  25
STUTTGART      CLEAR     32  23  69 SE6       30.50S WCI  26
PINE BLUFF     CLEAR     33  23  66 SE3       30.50S
MONTICELLO     CLEAR     34  21  59 SE3       30.50S


...NORTH MISSISSIPPI...

CITY           SKY/WX    TMP DP  RH WIND       PRES   REMARKS
TUPELO         CLEAR     34  21  59 CALM      30.50R
OXFORD           N/A     28  23  80 CALM      30.51R
OLIVE BRANCH   CLEAR     32  23  69 CALM      30.50S
TUNICA         CLEAR     32  28  86 CALM      30.52S
CLARKSDALE     CLEAR     32  23  69 CALM      30.53R
CORINTH        CLEAR     32  16  51 CALM      30.48S
GREENWOOD      CLEAR     32  24  72 CALM      30.52R
COLUMBUS       CLEAR     31  25  80 CALM      30.50R
STARKVILLE     FAIR      30  23  74 CALM      30.50S
GOLDEN TRIANGL CLEAR     36  18  48 N5        30.49R WCI  32


...SOUTHEAST MISSOURI...

CITY           SKY/WX    TMP DP  RH WIND       PRES   REMARKS
WEST PLAINS    CLEAR     37  22  54 S6        30.36S WCI  32
POPLAR BLUFF   CLEAR     27  16  63 S6        30.43S WCI  20
CAPE GIRARDEAU CLEAR     23  14  68 S8        30.44S WCI  14


...NORTHWEST ALABAMA...

CITY           SKY/WX    TMP DP  RH WIND       PRES   REMARKS
MUSCLE SHOALS  CLEAR     34  23  64 CALM      30.49R


...MIDDLE TENNESSEE...

CITY           SKY/WX    TMP DP  RH WIND       PRES   REMARKS
NASHVILLE      CLEAR     29  18  63 S5        30.47S WCI  24
CLARKSVILLE    PTCLDY    30  15  53 SW5       30.45S WCI  25
COLUMBIA         N/A     28  25  86 CALM      30.45S


...WESTERN KENTUCKY...

CITY           SKY/WX    TMP DP  RH WIND       PRES   REMARKS
PADUCAH        CLEAR     24  11  57 S3        30.44F
FORT CAMPBELL  PTCLDY    23  17  78 SW3       30.44S


...CENTRAL ARKANSAS...

CITY           SKY/WX    TMP DP  RH WIND       PRES   REMARKS
LITTLE ROCK    CLEAR     34  21  59 CALM      30.49R


SKY/WX REPORTED AS FAIR MEANS FEW OR NO CLOUDS BELOW
12 THOUSAND FEET.




USA.gov is the U.S. government's official web portal to all federal, state and local government web resources and services.